Weather in Kumeni

Russia / Kirov Oblast     58°06′13″N   49°54′11″E
temp.,
°C
wind,
m/s
gust,
m/s
humid.,
%
clouds,
%
prec.,
mm/h
press.,
hPa
HPBL,
m
19 september, sun
sun1900:000nw511935 0.0 1022302
03:00−1nw4109613 0.0 1023267
06:00−2nw499845 0.0 1023253
09:00+2nnw578279 0.0 1024616
12:00+2nnw5772100 0.0 1025932
15:00+3nnw5765100 0.0 10261155
18:00+3nnw4763100 0.0 1026480
21:00+2nnw3766100 0.0 1027326
20 september, mon
mon2000:00+2n3565100 0.0 1027176
03:00+2n2565100 0.0 1028137
06:000n227263 0.0 102928
09:00+4nne3464100 0.0 1029670
12:00+7ne345077 0.0 10291158
15:00+8ne455095 0.0 10281229
18:00+4ene336986 0.0 102940
21:00+1e388065 0.0 1030162
21 september, tue
tue2100:000e388998 0.0 1030169
03:00−1e379413 0.0 1030138
06:00−1e38949 0.0 1030156
09:00+5ese576227 0.0 1028856
12:00+8ese564914 0.0 10261117
15:00+9e5646100 0.0 10251174
18:00+5ene476793 0.0 1024111
21:00+3e487756 0.0 1024154
22 september, wed
wed2200:00+2e4108174 0.0 1023190
03:00+1e4108688 0.0 1022201
06:00+1e5118271 0.0 1022258
09:00+7e7105817 0.0 1021535
12:00+11e784562 0.0 1019886
15:00+11e6845100 0.0 10181030
18:00+8e51255100 0.0 1018407
21:00+7e61367100 0.0 1018409
23 september, thu
thu2300:00+6e61374100 0.0 1017404
03:00+5e61374100 0.0 1016389
06:00+5e61279100 0.2 1015427
09:00+7ese61190100 0.3 1015542
12:00+10se5884100 0.0 1015734
15:00+12se5773100 0.0 1015856
18:00+10ese5128112 0.0 1014300
21:00+7e6139098 0.0 1013320